This demonstration page uses our WeatherBlox Daily Observations layout. Learn more.

Hourly Observations for November 7, 2015

Temp ( °F °C ) Dew Point ( °F °C ) Humidity (%) Winds ( mph kmh ) Pressure ( in mb ) Visibility ( mi km ) Precip ( " mm )
12:15 am 00:15 Clear 34 1 32 0 93 93 W 6 9 30.42 1030 10 16.09344 0 0
12:35 am 00:35 Clear 34 1 32 0 93 93 W 7 11 30.45 1031 10 16.09344 0 0
12:55 am 00:55 Clear 34 1 32 0 93 93 W 6 9 30.45 1031 10 16.09344 0 0
1:15 am 01:15 Clear 34 1 32 0 93 93 W 6 9 30.45 1031 10 16.09344 0 0
1:35 am 01:35 Clear 32 0 30 -1 93 93 W 6 9 30.45 1031 10 16.09344 0 0
1:55 am 01:55 Clear 32 0 30 -1 93 93 W 6 9 30.45 1031 10 16.09344 0 0
2:15 am 02:15 Clear 32 0 30 -1 93 93 W 6 9 30.45 1031 10 16.09344 0 0
2:35 am 02:35 Clear 32 0 28 -2 87 87 W 5 7 30.45 1031 10 16.09344 0 0
2:55 am 02:55 Clear 32 0 30 -1 93 93 W 5 7 30.45 1031 10 16.09344 0 0
3:15 am 03:15 Clear 30 -1 28 -2 93 93 W 7 11 30.48 1032 10 16.09344 0 0
3:35 am 03:35 Clear 30 -1 28 -2 93 93 W 5 7 30.48 1032 10 16.09344 0 0
3:55 am 03:55 Clear 32 0 28 -2 87 87 W 5 7 30.45 1031 10 16.09344 0 0
4:15 am 04:15 Clear 32 0 28 -2 87 87 WSW 5 7 30.45 1031 10 16.09344 0 0
4:35 am 04:35 Clear 32 0 30 -1 93 93 W 7 11 30.45 1031 10 16.09344 0 0
4:55 am 04:55 Clear 32 0 30 -1 93 93 W 7 11 30.45 1031 10 16.09344 0 0
5:15 am 05:15 Clear 30 -1 28 -2 93 93 W 6 9 30.5 1033 10 16.09344 0 0
5:35 am 05:35 Clear 30 -1 28 -2 93 93 W 6 9 30.5 1033 10 16.09344 0 0
5:55 am 05:55 Clear 30 -1 28 -2 93 93 W 5 7 30.5 1033 10 16.09344 0 0
6:15 am 06:15 Clear 30 -1 28 -2 93 93 W 6 9 30.5 1033 10 16.09344 0 0
6:35 am 06:35 Clear 28 -2 27 -3 93 93 W 6 9 30.5 1033 10 16.09344 0 0
6:55 am 06:55 Clear 28 -2 27 -3 93 93 W 7 11 30.5 1033 10 16.09344 0 0
7:15 am 07:15 Sunny 28 -2 25 -4 86 86 W 3 6 30.5 1033 10 16.09344 0 0
7:35 am 07:35 Sunny 28 -2 27 -3 93 93 W 6 9 30.5 1033 10 16.09344 0 0
7:55 am 07:55 Sunny 30 -1 27 -3 86 86 W 6 9 30.5 1033 10 16.09344 0 0
8:15 am 08:15 Sunny 32 0 28 -2 87 87 W 6 9 30.53 1034 10 16.09344 0 0
8:35 am 08:35 Sunny 34 1 30 -1 87 87 W 5 7 30.5 1033 10 16.09344 0 0
8:55 am 08:55 Sunny 36 2 32 0 87 87 WNW 5 7 30.5 1033 10 16.09344 0 0
9:15 am 09:15 Sunny 37 3 32 0 81 81 W 5 7 30.5 1033 10 16.09344 0 0
9:35 am 09:35 Sunny 41 5 32 0 70 70 Calm 30.48 1032 10 16.09344 0 0
9:55 am 09:55 Sunny 43 6 34 1 71 71 SW 3 6 30.48 1032 10 16.09344 0 0
10:15 am 10:15 Sunny 45 7 32 0 61 61 WSW 5 7 30.45 1031 10 16.09344 0 0
10:35 am 10:35 Sunny 46 8 34 1 62 62 WSW 6 9 30.45 1031 10 16.09344 0 0
10:55 am 10:55 Sunny 48 9 32 0 54 54 WSW 6 9 30.45 1031 10 16.09344 0 0
11:15 am 11:15 Sunny 50 10 32 0 50 50 WSW 6 9 30.42 1030 10 16.09344 0 0
11:35 am 11:35 Sunny 52 11 30 -1 44 44 WSW 9 15 30.42 1030 10 16.09344 0 0
11:55 am 11:55 Sunny 52 11 32 0 47 47 WSW 8 13 30.42 1030 10 16.09344 0 0
12:15 pm 12:15 Sunny 52 11 30 -1 44 44 SW 9 15 30.42 1030 10 16.09344 0 0
12:35 pm 12:35 Sunny 54 12 30 -1 41 41 SW 10 17 30.39 1029 10 16.09344 0 0
12:55 pm 12:55 Sunny 54 12 30 -1 41 41 SW 10 17 30.39 1029 10 16.09344 0 0
1:15 pm 13:15 Sunny 54 12 27 -3 35 35 WSW 9 15 30.39 1029 10 16.09344 0 0
1:35 pm 13:35 Sunny 54 12 27 -3 35 35 WSW 7 11 30.36 1028 10 16.09344 0 0
1:55 pm 13:55 Sunny 55 13 27 -3 33 33 SW 6 9 30.33 1027 10 16.09344 0 0
2:15 pm 14:15 Sunny 55 13 27 -3 33 33 SW 7 11 30.33 1027 10 16.09344 0 0
2:35 pm 14:35 Sunny 55 13 25 -4 31 31 SW 8 13 30.33 1027 10 16.09344 0 0
2:55 pm 14:55 Sunny 55 13 25 -4 31 31 SW 7 11 30.3 1026 10 16.09344 0 0
3:15 pm 15:15 Sunny 55 13 27 -3 33 33 SW 9 15 30.3 1026 10 16.09344 0 0
3:35 pm 15:35 Sunny 55 13 25 -4 31 31 SW 5 7 30.3 1026 10 16.09344 0 0
3:55 pm 15:55 Sunny 55 13 25 -4 31 31 SW 8 13 30.3 1026 10 16.09344 0 0
4:15 pm 16:15 Sunny 55 13 25 -4 31 31 SW 7 11 30.3 1026 10 16.09344 0 0
4:35 pm 16:35 Sunny 55 13 25 -4 31 31 SW 7 11 30.3 1026 10 16.09344 0 0
4:55 pm 16:55 Sunny 54 12 27 -3 35 35 SW 6 9 30.33 1027 10 16.09344 0 0
5:15 pm 17:15 Sunny 52 11 25 -4 35 35 SSW 5 7 30.3 1026 10 16.09344 0 0
5:35 pm 17:35 Clear 48 9 25 -4 40 40 SSW 5 7 30.3 1026 10 16.09344 0 0
5:55 pm 17:55 Clear 48 9 25 -4 40 40 SSW 6 9 30.3 1026 10 16.09344 0 0
6:15 pm 18:15 Clear 46 8 25 -4 43 43 S 7 11 30.33 1027 10 16.09344 0 0
6:35 pm 18:35 Clear 43 6 25 -4 49 49 S 5 7 30.36 1028 10 16.09344 0 0
6:55 pm 18:55 Clear 41 5 27 -3 57 57 S 7 11 30.39 1029 10 16.09344 0 0
7:15 pm 19:15 Clear 43 6 27 -3 53 53 S 6 9 30.36 1028 10 16.09344 0 0
7:35 pm 19:35 Clear 43 6 27 -3 53 53 S 7 11 30.36 1028 10 16.09344 0 0
7:55 pm 19:55 Clear 43 6 27 -3 53 53 S 8 13 30.33 1027 10 16.09344 0 0
8:15 pm 20:15 Clear 41 5 27 -3 57 57 S 8 13 30.36 1028 10 16.09344 0 0
8:35 pm 20:35 Clear 41 5 28 -2 61 61 S 8 13 30.36 1028 10 16.09344 0 0
8:55 pm 20:55 Clear 41 5 28 -2 61 61 S 8 13 30.36 1028 10 16.09344 0 0
9:15 pm 21:15 Clear 41 5 28 -2 61 61 S 8 13 30.36 1028 10 16.09344 0 0
9:35 pm 21:35 Clear 39 4 28 -2 65 65 S 8 13 30.36 1028 10 16.09344 0 0
9:55 pm 21:55 Clear 39 4 28 -2 65 65 S 9 15 30.36 1028 10 16.09344 0 0
10:15 pm 22:15 Clear 39 4 27 -3 61 61 S 9 15 30.36 1028 10 16.09344 0 0
10:35 pm 22:35 Clear 39 4 27 -3 61 61 S 7 11 30.36 1028 10 16.09344 0 0
10:55 pm 22:55 Clear 37 3 28 -2 70 70 S 8 13 30.36 1028 10 16.09344 0 0
11:15 pm 23:15 Clear 37 3 28 -2 70 70 S 8 13 30.36 1028 10 16.09344 0 0
11:35 pm 23:35 Clear 37 3 28 -2 70 70 S 9 15 30.36 1028 10 16.09344 0 0
11:55 pm 23:55 Clear 37 3 28 -2 70 70 S 9 15 30.36 1028 10 16.09344 0 0

Powered by AerisWeather